Location: Edelsreith
(48.2500°N, 15.1333°E)
Time: 11:53:50
(UTC+00:00)

Daily predictions for brighter satellites

Satellite Brightness Start Highest point End
(mag) Time Altitude Azimuth Time Altitude Azimuth Time Altitude Azimuth
Cosmos 2082 Rocket 2.2 19:07:39 10° SSW 19:13:13 68° ESE 19:18:52 10° NNE
Cosmos 1842 Rocket 3.7 19:10:33 10° N 19:15:04 86° W 19:19:33 10° S
SPOT 5 4.4 19:12:45 10° ESE 19:15:38 18° ENE 19:18:34 10° NNE
Cosmos 2278 3.8 19:10:20 10° NNW 19:16:02 81° ENE 19:21:42 10° SSE
Resurs 1-3 3.9 19:14:17 10° S 19:18:40 72° WSW 19:23:05 10° NNW
Cosmos 2360 Rocket 3.9 19:18:22 10° N 19:22:41 22° NE 19:26:59 10° E
Cosmos 1633 2.5 19:20:04 10° S 19:23:38 63° E 19:27:13 10° NNE
ERS-1 Rocket 4.3 19:21:12 10° ESE 19:25:14 25° ENE 19:29:18 10° N
Cosmos 332 Rocket 4.2 19:20:37 10° NNW 19:25:23 49° ENE 19:30:08 10° SE
Cosmos 158 Rocket 4.5 19:22:30 10° S 19:27:15 39° ESE 19:32:09 10° NE
Cosmos 1606 2.9 19:26:45 10° NNW 19:30:31 71° W 19:34:17 10° S
Nadezhda 4 Rocket 4.0 19:26:07 10° S 19:32:14 70° E 19:38:28 10° NNE
Cosmos 2333 Rocket 4.3 19:29:08 10° N 19:32:33 16° NE 19:35:58 10° ENE
GP-B 4.1 19:31:09 10° NNE 19:35:04 29° E 19:38:47 11° SE
Landsat 7 3.9 19:33:14 10° SSE 19:38:00 89° WSW 19:42:47 10° NNW
Spot 2 Rocket 4.1 19:34:37 10° SE 19:39:27 44° ENE 19:44:18 10° N
SPOT 3 Rocket 3.6 19:34:27 10° SSE 19:39:41 85° ENE 19:44:57 10° NNW
ISS -3.5 19:36:50 10° WNW 19:40:10 59° SSW 19:42:58 14° SE
IGS 5A 3.7 19:37:06 10° S 19:41:14 71° WSW 19:45:24 10° NNW
BREEZE-M DEB (TANK) 3.3 19:33:28 10° W 19:44:27 80° N 19:47:46 10° E
Cosmos 1980 Rocket 2.9 19:39:07 10° NW 19:44:35 53° WSW 19:50:02 10° S
Cosmos 1812 4.5 19:42:55 10° NNE 19:45:41 18° ENE 19:48:00 12° ESE
USA 234 4.4 19:39:39 10° ENE 19:45:44 43° N 19:51:51 10° WNW
MetOp-B 4.2 19:40:45 10° SSE 19:46:06 83° ENE 19:51:31 10° NNW
CZ-2C R/B 4.0 19:42:22 10° NNE 19:46:46 47° E 19:51:04 10° S
Cosmos 2221 4.1 19:45:24 10° NNW 19:49:20 35° W 19:53:16 10° SSW
RESURS DK-1 3.2 19:47:33 10° SW 19:51:38 54° WNW 19:55:44 10° NNE
USA 245 3.8 19:47:53 10° SSE 19:52:56 69° ENE 19:57:04 10° N
Meteor 2-15 4.5 19:48:09 10° N 19:54:14 90° E 20:00:18 10° S
BREEZE-M DEB (TANK) 3.6 19:51:42 10° SW 19:55:25 61° SE 20:08:34 10° ENE
Cosmos 2322 Rocket 2.7 19:49:58 10° NNW 19:55:28 49° NE 19:59:58 15° SE
Cosmos 304 Rocket 3.8 19:55:03 10° NNW 19:59:53 89° ENE 20:03:55 15° SSE
Cosmos 1933 3.3 19:56:56 10° N 20:01:00 85° ENE 20:04:32 13° S
BREEZE-M DEB (TANK) 3.9 19:57:52 10° W 20:01:12 57° SSW 20:09:24 14° SE
Cosmos 1538 Rocket 4.1 19:57:03 10° SSW 20:02:17 81° WNW 20:07:30 10° NNE
Resurs 01 Rocket 2.7 19:59:43 10° S 20:03:57 44° W 20:08:15 10° NNW
ERS-2 3.6 20:01:30 10° N 20:04:55 39° WNW 20:08:20 10° SW
Cosmos 2151 3.0 20:02:10 10° S 20:06:25 83° W 20:10:43 10° N
Cosmos 1553 Rocket 4.5 20:00:46 10° N 20:06:33 44° ENE 20:10:56 17° SE
Cosmos 2098 Rocket 3.8 20:04:48 10° SSW 20:07:47 41° WNW 20:11:19 10° N
JB-3 4.4 20:05:32 10° NNE 20:09:41 72° E 20:13:45 10° S
Gbstr 26 Del rocket 2.7 20:06:35 10° WNW 20:10:19 73° SSW 20:12:56 20° SE
Meteor 2-3 Rocket 3.7 20:05:58 10° S 20:11:37 80° E 20:17:22 10° NNE
Meteor 2-15 Rocket 4.5 20:06:16 10° N 20:12:23 84° W 20:18:12 11° S
CARTOSAT-1 3.5 20:09:29 16° SSE 20:12:54 82° ENE 20:17:15 10° NNW
Cosmos 2084 4.4 20:12:29 20° SSE 20:13:53 24° ESE 20:17:16 10° ENE
Cosmos 2219 Rocket 3.9 20:12:18 10° N 20:16:43 23° NE 20:21:04 10° E
Cosmos 1624 Rocket 4.5 20:14:14 10° NNW 20:19:17 48° ENE 20:22:39 20° SE
Cosmos 1862 4.3 20:21:25 23° SE 20:22:56 30° E 20:26:27 10° NNE
SL-16 R/B 2.2 20:18:20 10° NNW 20:24:03 86° WSW 20:28:03 20° SSE
COSMOS 2455 4.3 20:26:04 16° ESE 20:26:53 17° ESE 20:30:33 10° ENE
Cosmos 1782 2.8 20:23:25 10° N 20:27:27 83° W 20:30:03 21° S
Cosmos 1515 Rocket 4.5 20:23:26 10° N 20:27:32 35° ENE 20:29:35 23° ESE
Cosmos 2237 4.4 20:22:21 10° NNW 20:28:03 65° ENE 20:31:46 22° SE
ARIANE 5 R/B 2.7 20:26:51 19° S 20:30:00 81° WSW 20:34:29 10° NNW
COSMOS 2428 4.3 20:26:34 10° N 20:31:11 24° NE 20:35:35 11° E
Meteor 2-6 Rocket 4.3 20:28:05 10° N 20:33:28 60° ENE 20:36:40 24° SSE
Cosmos 1271 Rocket 3.5 20:30:08 10° NNW 20:34:01 50° W 20:36:55 17° SSW
Cosmos 1809 Rocket 4.5 20:30:11 15° S 20:35:20 68° E 20:41:27 10° NNE
S3M 4.4 20:30:38 10° N 20:36:52 51° ENE 20:40:44 23° SE
USA 276 2.6 20:34:56 10° W 20:37:56 42° SSW 20:38:32 37° S
BREEZE-M DEB (TANK) 3.5 20:35:45 10° W 20:39:05 41° SSW 20:43:14 22° SE
Cosmos 1766 Rocket 3.5 20:37:42 19° S 20:40:49 82° E 20:45:13 10° N
Cosmos 1151 Rocket 3.1 20:36:42 10° NNW 20:41:04 78° W 20:43:40 24° S
ATLAS 5 CENTAUR R/B 3.7 20:38:48 10° NNW 20:43:18 28° NNE 20:48:27 10° E
Cosmos 1328 Rocket 3.5 20:40:50 10° N 20:45:19 89° E 20:47:39 28° S
Cosmos 1174 4.4 20:42:49 10° NNW 20:45:36 31° NE 20:46:29 26° E
ATLAS 2AS CENTAUR R/B 4.4 20:39:36 10° W 20:46:59 41° NNW 20:54:07 10° NE
Cosmos 923 Rocket 4.2 20:43:21 10° SSW 20:48:40 74° WNW 20:54:03 10° NNE
Terra 1.8 20:47:56 27° SSE 20:50:34 89° WSW 20:55:22 10° NNW
ATLAS 3B R/B 4.1 20:45:04 10° NW 20:51:08 31° WSW 20:56:42 13° SSW
USA 267 3.7 20:47:10 10° ENE 20:53:10 37° SE 20:59:01 10° SSW
SPOT 5 3.0 20:50:48 24° S 20:53:18 59° WSW 20:57:39 10° NNW
Cosmos 2082 Rocket 4.5 20:53:08 10° WSW 20:57:49 26° NW 21:02:34 10° N
Meteor 1-27 Rocket 4.2 20:53:41 10° N 20:59:08 48° ENE 21:01:49 28° SE
Cosmos 2056 Rocket 3.5 20:54:06 10° NNW 20:59:30 85° WSW 21:02:09 31° SSE
Meteor 2-21 Rocket 4.5 20:56:51 24° S 21:00:43 69° E 21:06:51 10° NNE
NOSS 2-1 (C) 2.7 21:00:51 54° SSE 21:01:14 59° SE 21:04:33 10° NE
BREEZE-M DEB (TANK) 2.5 21:01:42 10° W 21:03:13 43° WNW 21:03:13 43° WNW
ERS-1 Rocket 3.6 21:00:35 21° SSW 21:03:45 51° W 21:08:40 10° NNW
SL-27 R/B 2.4 21:06:23 51° SSE 21:07:05 67° ESE 21:10:40 10° NNE
Meteor 2-21 4.5 21:02:38 18° S 21:07:23 85° W 21:13:35 10° N
Cosmos 2360 Rocket 2.1 21:01:45 10° NNW 21:07:26 85° WSW 21:10:08 32° SSE
NOSS 2-1 (D) 2.6 21:08:18 54° SSW 21:08:54 73° SE 21:12:17 10° NE
ISS -1.2 21:15:12 10° WSW 21:15:56 11° SW 21:15:56 11° SW
Cosmos 1833 4.2 21:14:09 26° S 21:17:25 65° ESE 21:23:09 10° NNE
Cosmos 2333 Rocket 2.4 21:12:25 10° NNW 21:18:02 62° ENE 21:20:38 32° SE
Meteor 1-10 Rocket 4.2 21:14:39 10° NNW 21:20:14 78° W 21:22:51 32° S
Cosmos 1812 3.8 21:18:00 10° NNW 21:21:38 39° W 21:23:04 28° SW
Cosmos 1500 Rocket 3.6 21:22:34 46° SSE 21:23:41 65° E 21:28:05 10° NNE
Cosmos 1680 Rocket 4.3 21:18:46 10° SW 21:23:54 51° WNW 21:29:02 10° NNE
Cosmos 972 Rocket 4.4 21:23:45 37° SE 21:25:04 45° ESE 21:29:52 10° NNE
USA 234 3.5 21:22:43 15° ESE 21:28:13 67° NNE 21:34:43 10° NW
IRIDIUM 103 4.4 21:23:08 10° N 21:28:21 63° E 21:30:05 40° SSE
Cosmos 2322 3.8 21:22:39 10° NNW 21:28:23 70° ENE 21:30:49 35° SE
COBE Rocket 4.0 21:29:38 42° SE 21:30:58 60° ENE 21:35:36 10° N
Cosmos 292 Rocket 3.8 21:27:28 10° NNW 21:32:13 70° WSW 21:33:40 44° S
Cosmos 2297 Rocket 4.3 21:35:24 12° E 21:35:24 12° E 21:37:11 10° ENE
Cosmos 2237 Rocket 3.7 21:33:41 10° NNW 21:38:33 28° NE 21:42:14 15° E
Meteor 2-16 Rocket 4.5 21:35:25 27° SSW 21:38:56 76° W 21:45:03 10° N
Cosmos 2322 Rocket 3.4 21:34:25 10° NW 21:39:17 31° WSW 21:41:46 22° SW
Cosmos 1408 Rocket 4.4 21:40:12 26° SW 21:42:19 46° WNW 21:46:31 10° N
Cosmos 1743 Rocket 3.5 21:42:22 47° SSW 21:43:36 83° W 21:48:05 10° N
Cosmos 2285 Rocket 4.0 21:38:47 10° NNW 21:45:07 77° ENE 21:47:42 38° SE
IRIDIUM 106 4.2 21:41:22 10° N 21:46:38 89° E 21:48:18 45° S
Cosmos 2227 Rocket 4.3 21:47:05 11° E 21:47:07 11° E 21:48:11 10° E
Cosmos 2315 Rocket 4.0 21:43:18 10° N 21:49:39 88° W 21:52:17 39° S
Sich 1 3.1 21:51:50 53° ESE 21:52:14 56° E 21:56:29 10° NNE
Cosmos 2084 4.2 21:49:10 10° WSW 21:53:07 48° NW 21:57:14 10° NE
Cosmos 494 Rocket 4.3 21:53:17 41° ESE 21:53:49 43° ESE 21:58:40 10° NE
Okean 1 4.0 21:52:02 10° N 21:55:52 41° ENE 21:56:09 40° E
Cosmos 1633 Rocket 4.1 21:56:02 30° E 21:56:07 30° E 21:59:56 10° NNE
Cosmos 2266 Rocket 4.2 21:53:29 28° SSW 21:56:52 65° WNW 22:03:06 10° N
Cosmos 1666 Rocket 4.2 21:59:59 40° E 22:00:11 40° E 22:04:21 10° NNE
Cosmos 1048 Rocket 4.0 21:59:25 52° SSE 22:00:24 63° ESE 22:05:29 10° NNE
Cosmos 2219 Rocket 2.1 21:55:43 10° NNW 22:01:20 80° WSW 22:02:58 48° SSE
Cosmos 2228 Rocket 3.3 22:00:58 10° NNW 22:05:19 60° W 22:06:05 51° SW
SL-16 R/B 4.4 22:01:22 10° N 22:05:27 20° NE 22:09:30 10° E
Meteor 1-19 Rocket 4.4 21:59:57 10° N 22:05:34 62° ENE 22:07:11 44° SE
BREEZE-M DEB (TANK) 4.4 21:54:02 10° SW 22:06:51 48° SSE 22:11:08 10° E
NOSS 2-1 (E) 4.4 22:05:22 19° W 22:07:12 35° NW 22:10:32 10° NNE
SL-16 R/B 4.4 22:04:20 10° WNW 22:07:16 14° W 22:09:55 11° SW
USA 40 PKM 4.3 22:04:33 10° NW 22:08:09 74° NE 22:08:39 61° E
NOSS 3-1 (C) 4.2 22:03:27 10° NW 22:10:51 63° WSW 22:14:30 36° S
COSMOS 2455 2.7 22:09:10 34° SSW 22:11:58 87° ESE 22:18:02 10° NE
COSMOS 2428 2.7 22:10:22 10° NNW 22:16:04 76° WSW 22:17:35 50° S
Cosmos 1602 3.6 22:17:48 80° ENE 22:17:48 80° ENE 22:21:33 10° N
CZ-4C R/B 4.5 22:13:07 10° NW 22:18:54 30° NNE 22:25:35 10° E
Cosmos 1515 3.7 22:17:11 10° NNW 22:20:48 73° WNW 22:20:48 73° WNW
Cosmos 1862 Rocket 3.8 22:18:15 10° N 22:22:33 54° ENE 22:22:56 52° E
Spot 4 4.1 22:21:45 49° SW 22:22:38 57° W 22:27:24 10° NNW
USA 229 DEB 3.9 22:17:49 10° NW 22:25:07 75° SW 22:28:16 39° SSE
USA 229 3.9 22:17:54 10° NW 22:25:13 76° SW 22:28:23 39° SSE
ATLAS 5 CENTAUR R/B 2.2 22:22:59 10° NW 22:28:31 88° SW 22:30:39 44° SE
Terra 4.3 22:27:18 10° WSW 22:29:01 12° W 22:30:45 10° WNW
COSMOS 2487 3.5 22:31:50 39° WNW 22:31:51 39° WNW 22:35:04 10° N
Cosmos 1452 Rocket 4.2 22:26:58 10° NW 22:31:53 41° WSW 22:32:49 37° SW
Cosmos 1707 Rocket 3.5 22:27:38 10° NNW 22:31:59 70° W 22:32:18 66° SW
Thor Agena Rocket 4.3 22:29:02 10° NNE 22:33:39 34° E 22:34:07 34° ESE
ALOS 2 2.5 22:33:57 67° SW 22:34:17 71° WSW 22:38:42 10° NNW
USA 267 3.3 22:30:00 10° NE 22:36:34 81° NNW 22:43:07 10° WSW
Cosmos 2219 4.1 22:40:38 32° ESE 22:41:11 32° ESE 22:46:14 10° NE
Nadezhda 1 Rocket 4.1 22:35:52 10° N 22:42:17 70° E 22:44:26 43° SSE
Cosmos 1666 3.4 22:44:25 44° ENE 22:44:25 44° ENE 22:47:42 10° NNE
NOSS 3-1 (A) 4.2 22:38:08 10° NW 22:45:33 62° WSW 22:48:48 39° S
SL-08 ROCKET BODY 4.4 22:44:13 47° SSW 22:46:07 85° W 22:52:18 10° N
Cosmos 2360 Rocket 4.2 22:47:41 10° WNW 22:50:32 14° W 22:51:53 13° WSW
NOSS 2-2 (D) 4.5 22:51:53 10° NW 22:57:01 73° NE 23:00:43 28° SE
Cosmos 1110 Rocket 4.4 22:52:53 10° NNW 22:57:59 47° WSW 22:58:40 44° SW
Cosmos 1980 3.6 22:54:17 10° NNW 22:59:59 85° WSW 23:01:19 54° SSE
Cosmos 2333 Rocket 3.6 22:57:27 10° NW 23:01:52 24° WSW 23:02:38 23° WSW
Cosmos 1331 Rocket 4.4 22:58:25 10° NNW 23:03:25 46° WSW 23:03:58 44° SW
Meteor 2-17 Rocket 4.4 23:05:18 49° SSE 23:06:56 71° E 23:12:58 10° NNE
CZ-2D R/B 4.4 23:04:40 10° ENE 23:07:04 13° E 23:09:04 11° ESE
USA 234 3.4 23:10:02 44° S 23:11:23 51° SW 23:17:46 10° WNW
SL-16 R/B 4.3 23:07:02 10° ESE 23:11:51 25° NE 23:16:42 10° N
Nimbus 7 Rocket 4.4 23:06:02 10° NNE 23:12:05 77° WNW 23:14:02 45° SSW
Cosmos 1340 Rocket 3.0 23:13:35 61° ENE 23:13:35 61° ENE 23:17:11 10° NNE
NOSS 0 Rocket 4.2 23:08:49 10° NW 23:14:48 50° WSW 23:16:01 44° SW
EO 1 Del DPAF 4.5 23:13:46 10° NNE 23:16:42 30° E 23:16:42 30° E
Cosmos 2297 Rocket 2.1 23:17:11 55° S 23:18:22 72° ESE 23:24:02 10° NNE
Okean 1-7 2.9 23:14:26 10° N 23:18:41 71° ENE 23:18:54 69° ESE
Lacrosse 5 1.9 23:21:59 59° SE 23:22:06 59° SE 23:27:06 10° ENE
Cosmos 2237 Rocket 2.2 23:17:25 10° NNW 23:23:01 62° WSW 23:24:02 53° SSW
Cosmos 1869 Rocket 4.3 23:23:27 40° ESE 23:23:52 41° E 23:28:04 10° NNE
Cosmos 2084 Rocket 3.9 23:20:41 10° NW 23:24:07 49° W 23:24:07 49° W
Cosmos 2242 Rocket 3.4 23:20:23 10° N 23:24:49 83° E 23:25:08 75° SE
NOSS 2-2 (E) 4.4 23:20:45 10° NW 23:26:10 69° SW 23:28:32 42° SSE
Cosmos 2181 Rocket 4.3 23:21:58 10° N 23:28:15 60° ENE 23:30:51 35° SE
Cosmos 1470 Rocket 3.9 23:29:03 50° W 23:29:23 52° WNW 23:33:38 10° N
Cosmos 2227 Rocket 2.2 23:28:53 53° S 23:30:03 68° ESE 23:35:42 10° NNE
Cosmos 909 Rocket 4.3 23:31:45 44° S 23:33:49 64° ESE 23:41:26 10° NE
Cosmos 1633 Rocket 4.4 23:33:06 27° W 23:33:53 29° WNW 23:37:43 10° N
Cosmos 1933 Rocket 3.6 23:35:34 64° WSW 23:35:58 69° WNW 23:40:26 10° N
Timation 1 Rocket 4.4 23:41:04 49° S 23:42:35 67° ESE 23:48:33 10° NE
Meteor 1-11 Rocket 3.6 23:41:19 52° S 23:42:42 77° E 23:48:14 10° NNE
Cosmos 2219 Rocket 4.2 23:41:54 10° WNW 23:44:20 13° W 23:44:40 13° W
Cosmos 2263 Rocket 3.9 23:46:36 17° ESE 23:48:22 20° E 23:52:20 10° NE
SL-16 R/B 2.2 23:44:46 10° NNW 23:50:28 83° ENE 23:52:43 39° SSE
Cosmos 1992 Rocket 3.9 23:45:41 10° NNW 23:50:57 80° WSW 23:52:06 55° S
PSLV R/B 4.1 23:46:34 10° N 23:51:15 56° WNW 23:52:12 47° WSW
Cosmos 1269 Rocket 4.4 23:50:05 40° WSW 23:51:41 55° WNW 23:56:54 10° NNE
ADEOS Rocket 4.3 23:47:08 11° ESE 23:51:42 31° ENE 23:56:29 10° N
Resurs 1-4 Rocket 3.4 23:48:43 10° NNE 23:53:22 31° E 23:55:13 25° SE
